Volver al catálogo

STARLINK-31181

ActivoComunicacionesVLEO
NORAD 58746·PAYLOAD·🇺🇸 United States

Lanzado Jan 7, 2024 desde Cape Canaveral Space Force Station

Loading…

Próximos Pases (próximas 24 horas)

TLE

ActualizadoSource: CelesTrak SupGP

Época: Sep 15, 2026, 02:04 UTC

1 58746C 24005U   26258.08659722  .00008222  00000+0  29777-3 0  2589
2 58746  42.9997  77.9060 0001417 269.8004 241.3323 15.27578769    19

Sigue STARLINK-31181 en tiempo real con AllMySat

Download on the App Store